Location: Shenandoah County Park
(38.9356°N, 78.4524°W)
Time: 13:51:52
(UTC-05:00)

Vanguard 2 Rocket - Pass Details

Date: 08 December 2023
Orbit: 555 x 3309 km, 32.9° (Epoch: 03 March)

Event Time Altitude Azimuth Distance (km) Brightness Sun altitude
Rises 11:27:37 0° 204° (SSW) 5,009 11.5 27.7°
Reaches altitude 10° 11:31:02 10° 193° (SSW) 4,387 11.7 27.8°
Maximum altitude 11:41:49 31° 137° (SE) 3,888 11.3 28.1°
Drops below altitude 10° 11:56:45 10° 85° (E) 6,150 11.2 28.3°
Sets 12:02:39 0° 77° (ENE) 7,288 11.4 28.3°
